EDT,Max TemperatureF,Mean TemperatureF,Min TemperatureF,Max Dew PointF,MeanDew PointF,Min DewpointF,Max Humidity, Mean Humidity, Min Humidity, Max Sea Level PressureIn, Mean Sea Level PressureIn, Min Sea Level PressureIn, Max VisibilityMiles, Mean VisibilityMiles, Min VisibilityMiles, Max Wind SpeedMPH, Mean Wind SpeedMPH, Max Gust SpeedMPH,PrecipitationIn, CloudCover, Events, WindDirDegrees
2013-4-1,52,44,36,44,29,17,92,57,28,30.16,30.03,29.86,10,10,10,16,8,22,0.00,2,,289
2013-4-2,50,37,25,24,16,10,78,44,21,30.30,30.24,30.16,10,10,10,10,4,,0.00,0,,295
2013-4-3,51,38,27,20,16,14,73,39,24,30.38,30.31,30.27,10,10,10,13,5,18,0.00,0,,48
2013-4-4,52,45,38,28,20,14,61,38,31,30.26,30.11,30.02,10,10,10,12,7,,0.00,5,,71
2013-4-5,67,50,32,32,27,23,82,47,23,30.12,30.06,30.01,10,10,10,14,5,21,0.00,0,,311
2013-4-6,73,57,42,37,32,26,58,37,24,30.15,30.05,29.93,10,10,10,16,8,28,0.00,3,,144
2013-4-7,73,65,58,51,44,37,56,48,38,29.99,29.95,29.92,10,10,10,16,12,25,0.00,6,,196
2013-4-8,74,64,55,55,50,45,72,60,51,29.98,29.95,29.91,10,10,10,20,8,28,0.00,5,,181
2013-4-9,81,70,61,60,56,51,75,62,44,30.07,30.00,29.95,10,10,10,18,8,25,0.00,6,,183
2013-4-10,83,72,60,61,58,55,84,63,45,29.98,29.90,29.77,10,10,10,22,9,30,0.00,2,,177
2013-4-11,72,62,53,64,60,54,100,91,58,29.79,29.70,29.55,10,7,1,16,8,20,0.91,7,Rain-Thunderstorm,250
2013-4-12,54,45,37,52,41,32,100,81,52,29.98,29.74,29.62,10,10,5,21,13,29,0.06,6,Rain,264
2013-4-13,61,47,33,38,34,30,89,63,37,30.08,30.03,30.00,10,10,10,15,7,22,0.00,0,,247
2013-4-14,74,58,42,48,40,36,81,56,29,30.02,29.94,29.84,10,10,10,22,6,30,0.00,3,,126
2013-4-15,72,64,56,54,52,48,78,67,53,29.99,29.94,29.89,10,10,10,14,10,21,0.00,6,,148
2013-4-16,81,70,61,65,61,53,85,73,58,30.11,30.06,29.94,10,10,7,21,10,25,0.01,5,Rain-Thunderstorm,177
2013-4-17,79,70,61,68,63,60,99,85,67,30.13,30.06,29.93,10,9,6,18,7,26,0.08,5,Rain-Thunderstorm,94
2013-4-18,83,72,63,63,58,53,87,62,38,29.91,29.79,29.61,10,10,10,25,14,36,0.00,1,,158
2013-4-19,67,56,38,63,45,31,95,84,53,30.08,29.69,29.53,10,6,1,29,15,36,1.15,8,Rain,256
2013-4-20,56,44,32,34,29,24,88,59,32,30.36,30.22,30.09,10,10,10,16,5,21,0.00,1,,273
2013-4-21,61,49,38,31,28,26,62,46,30,30.47,30.39,30.32,10,10,10,14,8,,0.00,3,,51
2013-4-22,71,56,41,42,36,29,69,47,32,30.32,30.22,30.12,10,10,10,9,5,,0.00,1,,119
2013-4-23,70,58,48,52,47,41,77,62,50,30.12,30.03,29.88,10,10,10,20,7,29,0.00,2,Rain,166
2013-4-24,66,51,36,56,46,34,100,85,60,30.30,29.99,29.82,10,8,2,21,12,26,0.28,7,Rain-Thunderstorm,261
2013-4-25,61,46,32,38,34,32,100,75,39,30.38,30.31,30.27,10,7,1,20,4,28,0.00,1,,244
2013-4-26,63,50,38,43,34,24,84,54,26,30.45,30.38,30.32,10,10,10,10,4,,0.00,4,Rain,88
2013-4-27,56,53,49,55,52,41,100,89,68,30.33,30.13,29.93,10,9,4,18,7,25,0.28,8,Rain,107
2013-4-28,64,60,55,61,56,52,100,90,75,29.95,29.90,29.86,10,10,3,23,10,31,0.10,7,Rain-Thunderstorm,199
2013-4-29,68,60,53,54,53,50,100,83,55,30.04,29.97,29.93,10,8,2,8,5,,0.00,7,Rain,204
2013-4-30,80,63,46,56,50,46,100,78,37,30.04,29.99,29.96,10,7,1,12,3,,0.00,0,Rain,91